Hourly Data Report for October 24, 2013

All times are specified in Local Standard Time (LST). Add 1 hour to adjust for Daylight Saving Time where and when it is observed.

PANGNIRTUNG
NUNAVUT

66°08'36.300" N
65°42'40.500" W
22.60 m
2403049
71826
WXP

Download Data

Hourly Data (October 2013)
Hourly Data Report for October 24, 2013
Temp Definition
°C
Dew Point Temp Definition
°C
Rel Hum Definition
%
Wind Dir Definition
10's deg

Wind Spd Definition
km/h
Visibility Definition
km
Stn Press Definition
kPa
Hmdx Definition


Wind Chill Definition


Weather Definition


TIME
00:00 -4.5 -10.6 62 6 2   100.56   -5 LegendNANA
01:00 -5.1 -10.6 65   0   100.54     LegendNANA
02:00 -5.1 -10.6 65 15 4   100.53   -7 LegendNANA
03:00 -4.9 -9.8 68 22 4   100.52   -7 LegendNANA
04:00 -5.6 -11.2 65 15 4   100.51   -7 LegendNANA
05:00 -4.9 -10.8 63 14 6   100.50   -8 LegendNANA
06:00 -4.7 -11.0 61 11 6   100.49   -7 LegendNANA
07:00 -4.7 -11.1 61 12 6   100.48   -7 LegendNANA
08:00 -5.0 -11.2 62 14 2   100.45   -6 LegendNANA
09:00 -4.3 -11.3 58 13 4   100.42   -6 LegendNANA
10:00 -5.3 -11.2 63 12 2   100.38   -6 LegendNANA
11:00 -4.7 -11.4 59 13 6   100.34   -7 LegendNANA
12:00 -4.7 -11.3 60 13 2   100.31   -6 LegendNANA
13:00 -4.0 -10.8 59 18 4   100.27   -6 LegendNANA
14:00 -4.6 -10.2 65 25 2   100.24   -5 LegendNANA
15:00 -4.7 -9.8 67 12 2   100.21   -6 LegendNANA
16:00 -5.5 -10.7 67 17 4   100.17   -7 LegendNANA
17:00 -4.9 -11.0 62 13 6   100.16   -8 LegendNANA
18:00 -5.4 -11.2 64 13 6   100.13   -8 LegendNANA
19:00 -6.0 -11.8 63 21 2   100.09   -7 LegendNANA
20:00 -6.3 -10.7 71 22 4   100.06   -8 LegendNANA
21:00 -6.4 -10.5 73 24 2   100.01   -7 LegendNANA
22:00 -6.4 -10.8 71 8 2   99.96   -7 LegendNANA
23:00 -7.2 -11.2 73 21 4   99.90   -9 LegendNANA

Notes on Data Quality.

Legend

  • E = Estimated
  • M = Missing
  • NA = Not Available
  • ‡ = Partner data that is not subject to review by the National Climate Archives
Date modified: